軌道要素
The following improved orbital elements by Kenji Muraoka,
are from 348 observations 1866 to 1998, including 9 planets,
and 5 minor planets perturbations and non-gravitational effect
of style II. The mean residual is +/- 1.08 arc seconds.
Epoch = 1998 Mar. 8.0 TT JDT = 2450880.5
T = 1998 Feb. 28.09752 +/- 0.00011 (m.e.) TT
Peri. = 172.49873 +/- 0.00017
Node = 235.25865 +/- 0.00010 (2000.0)
Incl. = 162.48615 +/- 0.00002
q = 0.9765761 +/- 0.0000003 AU
e = 0.9055183 +/- 0.0000000
a = 10.3361455 +/- 0.0000003 AU
n = 0.02965966 +/- 0.00000000
P = 33.231 +/- 0.0000015 years
A1 = -0.401 +/- 0.007
A2 = +0.00880 +/- 0.00000
|